DW1549 Fauske NO current weather conditions

sailwx.info

Wind from 141 at 2 knots gusting 7

Air temperature 1.7° C
Dewpoint 0.8° C

Last reported at 2017-Jan-17 03:44 UTC.
Time now 2017-Jan-17 04:51 UTC

Location: N 67°16' E 015°25'.
View on Google Maps.

See reports from other nearby stations

  
Tides and Currents Weather Stations Pressure Air Temp Water Temp Dewpoint Dewpoint Depression Visibility Wind Speed Wind Dir Waves Ship Positions
date/time (UTC)wind fromknots sea level pressurealtimeterstation pressurevisibilityair tempwater tempwave heightnotes
2017-Jan-17 03:44 141 2 gusting 7 1.7
2017-Jan-17 03:34 118 5 gusting 8 1.7
2017-Jan-17 03:24 122 3 gusting 6 1.1
2017-Jan-17 03:14 122 2 gusting 5 1.1
2017-Jan-17 03:04 122 1.1
2017-Jan-17 02:54 122 1.1
2017-Jan-17 02:44 121 2 gusting 6 1.1
2017-Jan-17 02:24 121 1 gusting 7 1.1
2017-Jan-17 02:14 124 2 gusting 8 1.1
2017-Jan-17 02:04 120 1 gusting 10 1.1
2017-Jan-17 01:54 114 6 gusting 11 1.1
2017-Jan-17 01:44 112 7 gusting 10 1.1
2017-Jan-17 01:34 126 5 gusting 13 1.1
2017-Jan-17 01:24 116 7 gusting 13 1.1
2017-Jan-17 01:14 114 7 gusting 13 1.1
2017-Jan-17 01:04 119 8 gusting 13 1.1
2017-Jan-17 00:54 121 8 gusting 13 1.1
2017-Jan-17 00:24 126 8 gusting 14 1.1
2017-Jan-17 00:14 109 7 gusting 15 1.1
2017-Jan-16 23:34 119 11 gusting 15 0.6
2017-Jan-16 23:04 119 10 gusting 17 -0.0
2017-Jan-16 22:14 126 8 gusting 20 -0.0
2017-Jan-16 21:54 125 10 gusting 17 -0.0
2017-Jan-16 21:44 120 11 gusting 17 -0.6
2017-Jan-16 21:34 120 12 gusting 17 -0.0
2017-Jan-16 21:24 124 10 gusting 19 -0.6
2017-Jan-16 21:14 118 11 gusting 17 -0.6
2017-Jan-16 21:04 111 11 gusting 18 -1.1
2017-Jan-16 20:44 107 12 gusting 18 -1.1
2017-Jan-16 20:34 106 12 gusting 17 -1.1
2017-Jan-16 20:14 104 6 gusting 15 -1.1
2017-Jan-16 20:04 093 9 gusting 14 -1.7
2017-Jan-16 19:54 093 11 gusting 15 -1.7
2017-Jan-16 19:44 093 11 gusting 17 -1.7
2017-Jan-16 19:34 092 9 gusting 17 -1.7
2017-Jan-16 19:24 091 11 gusting 17 -1.7
2017-Jan-16 19:14 091 9 gusting 14 -1.7
2017-Jan-16 19:04 091 8 gusting 14 -1.7
2017-Jan-16 18:54 091 12 gusting 17 -1.7
2017-Jan-16 18:44 091 11 gusting 17 -1.1
2017-Jan-16 18:34 080 10 gusting 15 -1.1
2017-Jan-16 18:14 080 7 gusting 12 -1.1
2017-Jan-16 18:04 080 6 gusting 15 -1.1
2017-Jan-16 17:44 080 9 gusting 15 -1.7
2017-Jan-16 17:34 072 9 gusting 13 -1.7
2017-Jan-16 17:24 071 9 gusting 13 -1.7
2017-Jan-16 17:14 068 5 gusting 11 -1.7
2017-Jan-16 17:04 068 4 gusting 11 -1.7
2017-Jan-16 16:54 068 7 gusting 12 -1.7
2017-Jan-16 16:44 068 6 gusting 13 -1.7
2017-Jan-16 16:24 068 7 gusting 13 -2.2
2017-Jan-16 16:14 068 6 gusting 11 -2.2
2017-Jan-16 16:04 068 7 gusting 11 -2.8
2017-Jan-16 15:54 068 7 gusting 12 -2.8
2017-Jan-16 15:44 067 7 gusting 13 -2.8
2017-Jan-16 15:34 055 6 gusting 10 -3.3
2017-Jan-16 15:24 055 4 gusting 10 -3.3
2017-Jan-16 15:14 054 5 gusting 11 -3.3
2017-Jan-16 15:04 054 3 gusting 8 -3.9
2017-Jan-16 14:54 054 4 gusting 8 -3.9
2017-Jan-16 14:34 054 5 gusting 8 -3.9
2017-Jan-16 14:24 054 3 gusting 10 -3.9
2017-Jan-16 14:14 054 3 gusting 10 -3.9
2017-Jan-16 13:44 054 4 gusting 10 -3.9
2017-Jan-16 13:34 054 4 gusting 11 -3.9
2017-Jan-16 13:14 054 5 gusting 13 -5.0
2017-Jan-16 12:54 053 6 gusting 12 -5.0
2017-Jan-16 12:34 053 5 gusting 10 -4.4
2017-Jan-16 12:24 053 6 gusting 12 -4.4
2017-Jan-16 12:04 053 10 gusting 13 -5.0
2017-Jan-16 11:54 053 10 gusting 17 -4.4
2017-Jan-16 11:24 053 4 gusting 10 -4.4
2017-Jan-16 11:14 053 5 gusting 11 -5.0
2017-Jan-16 11:04 053 2 gusting 10 -6.1
2017-Jan-16 10:54 052 -7.2
2017-Jan-16 10:44 052 -7.2
2017-Jan-16 10:34 052 -7.8
2017-Jan-16 10:24 052 -7.8
2017-Jan-16 10:14 052 0 gusting 6 -8.3
2017-Jan-16 09:54 052 0 gusting 4 -9.4
2017-Jan-16 08:44 052 -9.4
2017-Jan-16 08:34 052 2 gusting 5 -10.0
2017-Jan-16 08:14 052 1 gusting 5 -10.0
2017-Jan-16 08:04 052 2 gusting 6 -9.4
2017-Jan-16 07:34 052 5 gusting 7 -8.9
2017-Jan-16 07:24 052 2 gusting 7 -8.3
2017-Jan-16 07:04 052 -8.3
2017-Jan-16 06:54 052 -7.8
2017-Jan-16 06:44 052 -7.2
2017-Jan-16 06:34 052 -7.2
2017-Jan-16 06:24 052 4 gusting 10 -7.8
2017-Jan-16 06:04 052 -8.3
2017-Jan-16 05:54 052 2 gusting 5 -8.3
2017-Jan-16 05:44 052 -7.8
2017-Jan-16 05:24 052 -7.8
2017-Jan-16 05:14 052 2 gusting 2 -8.3
2017-Jan-16 04:44 052 -8.9
2017-Jan-16 04:34 052 -8.9
2017-Jan-16 04:24 052 -8.3
2017-Jan-16 04:14 052 0 gusting 5 -7.8
2017-Jan-16 04:04 052 1 gusting 8 -8.3
2017-Jan-16 03:54 052 2 gusting 5 -9.4
2017-Jan-16 03:44 052 -9.4
2017-Jan-16 03:14 052 -9.4
2017-Jan-16 03:04 052 -8.9
2017-Jan-16 02:44 052 -8.3
2017-Jan-16 02:24 052 -8.3
2017-Jan-16 02:14 052 0 gusting 5 -8.3
2017-Jan-16 01:54 052 0 gusting 5 -8.3
2017-Jan-16 01:44 052 0 gusting 4 -8.3
2017-Jan-16 01:34 052 -8.3
2017-Jan-16 01:14 052 -8.3
2017-Jan-16 01:04 052 -8.3
2017-Jan-16 00:54 052 -8.3
2017-Jan-16 00:44 052 3 gusting 5 -8.3
2017-Jan-16 00:34 052 2 gusting 4 -8.3
2017-Jan-16 00:24 052 -8.3
2017-Jan-16 00:14 052 -8.3
2017-Jan-16 00:04 052 -8.3
2017-Jan-15 23:54 052 -8.3
2017-Jan-15 23:44 052 -8.3
2017-Jan-15 23:24 052 -8.3
2017-Jan-15 23:14 052 -8.3
2017-Jan-15 23:04 052 -8.3
2017-Jan-15 22:24 052 -7.8
2017-Jan-15 22:14 052 -7.8
2017-Jan-15 21:44 052 -7.8
2017-Jan-15 21:34 052 -7.8
2017-Jan-15 21:24 053 -7.2
2017-Jan-15 21:14 052 -7.2
2017-Jan-15 20:24 053 -7.2
2017-Jan-15 20:14 053 -7.2
2017-Jan-15 20:04 053 -7.2
2017-Jan-15 19:54 053 -7.2
2017-Jan-15 19:44 053 -6.7
2017-Jan-15 19:34 053 -6.7
2017-Jan-15 19:04 053 -6.7
2017-Jan-15 18:04 053 -5.0
2017-Jan-15 17:54 053 -5.0
2017-Jan-15 17:44 053 -5.0
2017-Jan-15 17:34 053 0 gusting 5 -5.0
2017-Jan-15 17:24 053 -5.0
2017-Jan-15 17:14 053 -4.4
2017-Jan-15 17:04 053 -4.4
2017-Jan-15 16:54 053 -4.4
2017-Jan-15 16:44 053 -3.9
2017-Jan-15 16:24 053 2 gusting 7 -3.9
2017-Jan-15 16:04 053 1 gusting 7 -3.3
2017-Jan-15 15:54 053 3 gusting 8 -2.8
2017-Jan-15 15:44 053 0 gusting 2 -2.2
2017-Jan-15 15:24 053 3 gusting 8 -2.2
2017-Jan-15 15:04 053 1 gusting 6 -2.2
2017-Jan-15 14:54 053 3 gusting 8 -2.2
2017-Jan-15 14:44 053 0 gusting 10 -1.7
2017-Jan-15 14:24 053 2 gusting 11 -1.7
2017-Jan-15 14:14 055 1 gusting 5 -2.2
2017-Jan-15 13:44 055 -1.7
2017-Jan-15 13:34 055 -1.1
2017-Jan-15 13:04 055 0 gusting 4 -0.6
2017-Jan-15 12:54 055 1 gusting 5 -0.6
2017-Jan-15 12:44 055 2 gusting 8 -0.6
2017-Jan-15 12:34 054 2 gusting 10 -0.0
2017-Jan-15 12:24 049 2 gusting 8 -0.0
2017-Jan-15 12:04 062 2 gusting 10 -0.0
2017-Jan-15 11:44 061 4 gusting 10 -0.0
2017-Jan-15 11:34 052 0 gusting 7 0.6
2017-Jan-15 11:24 058 1 gusting 6 0.6
2017-Jan-15 11:14 018 0.6
2017-Jan-15 10:54 249 0.6
2017-Jan-15 10:44 249 0.6
2017-Jan-15 10:24 242 0.6
2017-Jan-15 10:14 242 1.1
2017-Jan-15 10:04 193 1.1
2017-Jan-15 09:24 171 6 gusting 13 0.6
2017-Jan-15 09:14 175 6 gusting 15 0.6
2017-Jan-15 08:44 161 11 gusting 17 -0.0
2017-Jan-15 08:34 124 8 gusting 13 -0.0
2017-Jan-15 08:24 129 6 gusting 11 -0.0
2017-Jan-15 08:04 177 0 gusting 10 -0.0
2017-Jan-15 07:54 141 -0.0
2017-Jan-15 07:44 141 0 gusting 2 -0.0
2017-Jan-15 07:34 142 0 gusting 10 -0.0
2017-Jan-15 07:24 251 2 gusting 8 -0.6
2017-Jan-15 07:14 128 -0.6
2017-Jan-15 07:04 128 4 gusting 8 -0.6
2017-Jan-15 06:54 145 0 gusting 8 -0.6
2017-Jan-15 06:44 137 0 gusting 10 -1.1
2017-Jan-15 06:24 109 0 gusting 7 -1.1
2017-Jan-15 06:14 109 0 gusting 6 -1.1
2017-Jan-15 06:04 055 1 gusting 10 -1.1
2017-Jan-15 05:54 127 6 gusting 11 -1.1
2017-Jan-15 05:44 124 6 gusting 8 -1.7
2017-Jan-15 05:34 114 4 gusting 10 -1.7
2017-Jan-15 05:24 111 -1.7
2017-Jan-15 05:14 130 2 gusting 10 -1.7
2017-Jan-15 04:54 117 8 gusting 13 -2.2
2017-Jan-15 04:44 132 7 gusting 11 -2.2
2017-Jan-15 04:34 117 3 gusting 11 -2.2
2017-Jan-15 04:24 114 8 gusting 17 -2.2
2017-Jan-15 04:14 134 8 gusting 17 -2.2
2017-Jan-15 04:04 114 8 gusting 15 -2.2